VAMDRUP current weather conditions

sailwx.info

Wind from 200 at 20 knots

Air temperature 4.0° C
Dewpoint 3.0° C

Last reported at 2019-Dec-11 00:20 UTC.
Time now 2019-Dec-11 02:27 UTC

Location: N 55°26' E 009°20'.
View on Google Maps.

See reports from other nearby stations

  
Tides and Currents Weather Stations Pressure Air Temp Water Temp Dewpoint Dewpoint Depression Visibility Wind Speed Wind Dir Waves Ship Positions
date/time (UTC)wind fromknots sea level pressurealtimeterstation pressurevisibilityair tempwater tempwave heightnotes
2019-Dec-11 01:50 200 21 4.0
2019-Dec-11 01:20 200 22 4.0
2019-Dec-11 00:50 200 21 gusting 33 4.0
2019-Dec-11 00:20 200 20 4.0
2019-Dec-10 23:50 200 20 gusting 32 4.0
2019-Dec-10 23:20 200 20 4.0
2019-Dec-10 22:50 190 19 4.0
2019-Dec-10 22:20 200 20 4.0
2019-Dec-10 21:50 190 18 gusting 27 4.0
2019-Dec-10 21:20 180 17 4.0
2019-Dec-10 20:50 190 15 gusting 27 4.0
2019-Dec-10 20:20 190 18 gusting 28 4.0
2019-Dec-10 19:50 190 17 gusting 29 4.0
2019-Dec-10 19:20 180 14 4.0
2019-Dec-10 18:50 180 13 4.0
2019-Dec-10 18:20 180 13 4.0
2019-Dec-10 17:50 180 12 4.0
2019-Dec-10 17:20 180 13 4.0
2019-Dec-10 16:50 180 12 4.0
2019-Dec-10 16:20 180 9 4.0
2019-Dec-10 15:50 190 9 5.4 5.0
2019-Dec-10 15:20 190 11 5.4 5.0
2019-Dec-10 14:50 200 13 5.4 5.0
2019-Dec-10 13:50 190 7 5.4 5.0
2019-Dec-10 12:50 190 6 5.4 5.0
2019-Dec-10 11:50 190 7 5.4 5.0
2019-Dec-10 10:50 190 5 5.4 4.0
2019-Dec-10 09:50 180 4 5.4 2.0
2019-Dec-10 08:50 200 2 5.4 2.0
2019-Dec-10 07:50 210 4 5.4 1.0
2019-Dec-10 07:20 240 4 5.4-0.0
2019-Dec-10 06:50 250 5 5.4 1.0
2019-Dec-10 06:20 240 4 -0.0
2019-Dec-10 05:50 260 4 1.0
2019-Dec-10 05:20 260 6 1.0
2019-Dec-10 04:50 270 4 1.0
2019-Dec-10 04:20 270 4 1.0
2019-Dec-10 03:50 260 5 1.0
2019-Dec-10 03:20 280 5 1.0
2019-Dec-10 02:50 270 5 2.0
2019-Dec-10 02:20 290 6 2.0
2019-Dec-10 01:50 280 5 2.0
2019-Dec-10 01:20 280 6 2.0
2019-Dec-10 00:50 290 6 2.0
2019-Dec-10 00:20 290 6 2.0
2019-Dec-09 23:50 280 6 2.0
2019-Dec-09 23:20 300 6 2.0
2019-Dec-09 22:50 290 7 2.0
2019-Dec-09 22:20 280 8 2.0
2019-Dec-09 21:50 270 6 2.0
2019-Dec-09 21:20 280 6 2.0
2019-Dec-09 20:50 300 8 3.0
2019-Dec-09 20:20 290 6 3.0
2019-Dec-09 19:50 310 7 4.0
2019-Dec-09 19:20 310 9 4.0
2019-Dec-09 18:50 320 11 4.0
2019-Dec-09 18:20 330 14 4.0
2019-Dec-09 17:50 300 13 6.0
2019-Dec-09 17:20 300 15 6.0
2019-Dec-09 16:50 290 14 5.0
2019-Dec-09 16:20 300 13 6.0
2019-Dec-09 15:50 290 13 5.4 6.0
2019-Dec-09 14:50 290 14 5.4 6.0
2019-Dec-09 13:50 280 11 5.4 6.0
2019-Dec-09 12:50 280 8 5.4 7.0
2019-Dec-09 11:50 280 7 5.4 6.0
2019-Dec-09 11:20 270 9 5.4 7.0 Light rain.
2019-Dec-09 10:50 250 14 5.4 7.0 Light rain.
2019-Dec-09 09:50 220 13 5.4 6.0
2019-Dec-09 08:50 220 9 5.4 6.0
2019-Dec-09 08:20 240 13 3.2 5.0 Light rain showers.
2019-Dec-09 07:50 260 14 2.2 5.0 Light rain showers.
2019-Dec-09 07:38 220 12 gusting 26 1.2 6.0 Rain showers. Hail.
2019-Dec-09 07:20 220 14 3.2 6.0 Light rain showers.
2019-Dec-09 06:50 260 17 4.9 5.0 Rain showers.
2019-Dec-09 06:20 240 13 6.0
2019-Dec-09 05:50 220 17 6.0
2019-Dec-09 05:20 220 13 6.0
2019-Dec-09 04:50 230 14 6.0
2019-Dec-09 04:20 220 15 gusting 26 6.0
2019-Dec-09 03:50 220 13 6.0
2019-Dec-09 03:20 230 13 6.0
2019-Dec-09 02:50 230 11 6.0
2019-Dec-09 02:20 210 12 6.0